Location: Hawaiian Village Mobile Home Park
(32.8359°N, 116.9792°W)
Time: 03:21:28
(UTC+00:00)

ADEOS - Visible Passes

Search period start: 30 November 2021 00:00
Search period end: 10 December 2021 00:00
Orbit: 793 x 793 km, 98.9° (Epoch: 29 November)

Date Brightness Start Highest point End Pass type
(mag) Time Alt. Az. Time Alt. Az. Time Alt. Az.
30 Nov 3.8 13:07:44 10° NNE 13:12:57 73° ESE 13:18:09 10° S visible
01 Dec 5.1 12:39:34 10° NNE 12:44:23 36° E 12:49:09 10° SSE visible
02 Dec 6.4 01:33:59 10° SW 01:37:52 21° W 01:41:45 10° NW visible
02 Dec 6.2 12:12:05 10° NE 12:15:41 19° E 12:19:15 10° SE visible
02 Dec 3.9 13:50:24 10° N 13:55:17 42° WNW 14:00:09 10° SW visible
03 Dec 5.1 01:04:18 10° S 01:09:11 41° W 01:14:07 10° NNW visible
03 Dec 3.5 13:21:37 10° N 13:26:52 82° WNW 13:32:04 10° SSW visible
04 Dec 4.5 12:53:16 10° NNE 12:58:19 50° E 13:03:22 10° S visible
05 Dec 6.6 01:48:56 10° SW 01:51:53 15° W 01:54:51 10° WNW visible
05 Dec 5.7 12:25:24 10° NE 12:29:41 26° E 12:33:57 10° SSE visible
05 Dec 4.3 14:04:34 10° N 14:09:06 31° WNW 14:13:38 10° SW visible
06 Dec 5.8 01:18:38 10° SSW 01:23:09 30° W 01:27:43 10° NW visible
06 Dec 6.6 11:58:43 10° ENE 12:00:56 13° E 12:03:08 10° ESE visible
06 Dec 3.6 13:35:36 10° N 13:40:44 60° WNW 13:45:51 10° SSW visible
07 Dec 3.9 13:07:02 10° NNE 13:12:15 70° ESE 13:17:26 10° S visible
08 Dec 7.0 02:04:56 10° WSW 02:05:55 10° W 02:06:55 10° W visible
08 Dec 5.2 12:38:55 10° NNE 12:43:40 35° E 12:48:23 10° SSE visible
09 Dec 6.3 01:33:10 10° SW 01:37:08 22° W 01:41:09 10° NW visible
09 Dec 6.3 12:11:29 10° NE 12:14:58 18° E 12:18:25 10° SE visible
09 Dec 3.9 13:49:40 10° N 13:54:36 44° WNW 13:59:30 10° SW visible
